RH
41 37 53 67 62 68 63 65 63 57 59 55 62 92 92 88 90 99 92 77 49 36 32 30 29 29 30 29 29 30 32 36 38 39 43 45 40 43 43 39 33 32 48 88 100
50 40 38 42 54 60 62 56 51 55 54 47 41 54 70 90 84 85 87 88 84 70 53 43 34 38 39 32 30 26 24 22 22 23 28 33 37 40 42 44 40 34 33 41 90
69 56 47 45 43 50 52 53 45 47 46 47 42 38 49 52 55 54 54 51 47 46 51 66 70 77 59 52 44 39 38 38 36 34 25 25 30 30 34 41 38 34 31 36 53
78 71 65 58 55 48 49 49 42 40 38 38 45 38 37 42 47 46 46 42 39 42 37 34 33 33 30 27 24 22 21 20 21 22 24 31 36 32 25 33 38 33 32 33 38
97 81 72 65 66 67 58 48 40 33 39 39 43 47 38 34 35 36 34 33 35 34 32 29 27 24 22 22 20 18 17 15 15 17 18 20 20 26 35 36 25 32 32 31 53
89 89 81 71 64 67 73 72 54 47 45 43 40 50 46 39 34 29 27 26 24 24 23 21 20 19 19 18 16 15 14 13 13 11 12 15 20 17 19 25 27 26 29 34 26
93 90 88 85 77 73 79 76 72 64 66 57 45 42 43 46 41 37 33 29 26 22 18 16 15 15 15 15 14 13 12 12 12 12 12 8 10 16 21 18 19 22 32 36 31
72 90 90 88 82 80 76 76 74 76 74 70 68 62 55 46 38 33 33 24 23 23 21 19 18 17 14 12 10 9 8 8 8 9 10 9 12 9 11 15 17 16 17 26 40
30 31 46 67 78 83 79 77 76 78 78 80 76 77 65 58 53 46 38 25 22 21 20 18 16 14 12 10 8 7 6 6 6 6 6 6 8 9 8 8 12 15 14 16 21
37 34 30 27 28 49 71 78 79 80 84 81 79 82 73 64 55 50 44 34 23 20 18 14 12 10 7 6 6 5 4 4 4 4 4 4 5 7 8 8 8 9 13 15 16
51 44 37 34 31 27 28 48 76 78 77 94 86 75 66 63 57 51 41 37 25 18 17 14 10 8 7 6 4 3 4 4 4 3 3 3 4 5 6 7 9 9 10 14 16
62 60 50 42 35 33 29 27 36 67 79 95 84 81 76 64 57 50 42 37 29 19 18 12 9 8 5 4 3 2 3 3 3 3 4 4 6 5 5 6 8 9 9 10 16
93 75 61 51 46 44 36 33 29 31 61 86 86 79 76 68 64 59 44 37 30 23 22 13 10 8 5 4 3 2 2 2 2 2 2 4 5 7 8 6 7 8 9 10 11
100 99 80 72 53 54 42 38 37 35 33 49 87 94 90 89 79 71 48 37 29 34 25 13 13 9 6 5 4 3 2 2 2 2 2 3 5 5 7 8 7 8 8 10 12
100 100 100 76 69 75 55 52 50 38 36 30 45 81 98 89 88 77 49 40 34 34 23 12 16 11 7 7 5 5 3 4 4 3 2 2 4 4 4 5 7 9 9 9 11
100 100 100 100 79 76 81 63 55 54 41 35 32 50 85 85 76 73 56 39 49 39 20 13 17 14 11 9 7 5 4 4 5 3 3 2 3 3 4 5 5 6 9 9 9
100 100 100 100 87 80 74 82 61 54 52 39 38 40 67 84 92 86 68 46 59 36 20 20 20 18 14 11 10 7 6 6 6 5 4 3 3 3 4 4 4 5 6 10 9
100 84 100 100 100 100 90 74 80 69 51 51 45 38 67 72 73 68 62 57 60 34 21 23 28 24 18 14 13 13 9 8 9 7 4 5 5 5 5 6 6 6 7 8 10
100 98 97 100 100 100 92 63 91 89 65 53 57 41 48 77 79 95 77 67 67 37 22 25 30 31 24 20 16 15 14 11 11 12 8 9 9 7 7 8 6 7 7 8 9
100 100 83 100 100 100 97 64 81 100 91 56 60 53 50 56 72 88 82 78 71 39 27 30 36 35 28 23 19 17 16 16 15 12 12 13 11 13 10 9 10 10 11 10 8
100 100 92 87 100 100 100 76 92 91 92 68 60 63 47 74 59 67 76 81 83 45 30 34 40 37 31 25 23 20 20 17 16 15 14 11 13 15 17 15 12 12 15 15 11
98 100 100 100 88 83 100 96 77 92 96 99 59 69 56 85 79 64 70 87 90 63 32 40 53 44 39 30 30 29 22 18 17 14 13 12 13 11 12 15 16 18 18 18 17
88 95 100 100 100 100 100 100 90 93 93 97 61 66 78 63 99 65 84 78 94 75 37 40 56 50 46 38 40 32 26 23 20 16 14 12 14 13 13 12 14 14 19 16 17
82 99 100 100 100 100 100 100 96 88 85 100 77 62 77 65 96 77 86 98 99 93 56 44 52 56 49 40 38 37 36 33 30 22 16 14 13 12 12 12 13 14 15 16 18
79 96 100 100 100 100 100 100 96 95 98 100 98 58 68 75 98 90 65 98 100 97 72 58 49 58 58 49 44 44 47 45 37 27 22 20 15 12 12 13 12 13 16 16 17
66 99 100 100 100 100 100 100 100 100 100 100 100 61 59 78 98 100 93 85 100 100 89 66 47 59 59 57 48 55 58 61 51 41 32 20 17 15 14 13 14 14 16 20 24
99 82 92 96 96 96 90 83 88 86 98 99 100 82 55 63 86 100 100 77 100 100 100 95 60 63 68 73 62 56 65 70 66 54 47 42 28 21 17 16 15 16 18 28 32
Wind_Speed
32 34 32 30 28 30 30 28 27 23 21 19 19 19 20 21 22 27 28 33 41 51 59 65 68 69 69 71 73 76 77 76 77 77 75 76 74 77 79 77 72 60 61 57 55
35 33 32 30 28 28 27 27 26 24 25 26 25 25 25 26 27 30 31 32 33 36 39 43 48 50 52 56 59 63 65 70 75 80 81 80 79 80 80 80 80 70 62 66 60
34 31 32 32 29 28 26 26 27 27 27 26 29 31 31 32 34 35 37 38 39 40 42 44 46 48 51 52 54 55 54 58 60 63 68 72 81 86 84 88 84 75 67 64 65
34 33 31 31 30 29 29 30 28 29 29 28 27 30 36 38 39 41 42 43 46 47 48 49 52 53 56 58 58 57 61 63 66 67 65 62 64 75 82 85 85 80 74 70 70
36 35 34 32 32 32 30 31 30 29 29 30 29 28 32 37 41 43 45 46 47 50 53 54 55 57 60 63 64 66 69 71 72 75 72 70 70 76 74 79 83 82 78 77 72
40 39 38 36 35 34 33 33 31 29 30 31 31 32 33 34 39 44 47 49 51 53 53 55 58 60 65 68 70 75 74 78 80 83 81 80 79 85 77 83 82 80 80 82 82
41 41 41 40 39 37 35 33 32 32 33 32 30 29 32 36 38 39 42 47 53 55 57 59 62 65 69 74 78 81 84 86 91 89 91 87 80 89 89 92 89 84 82 83 85
44 45 44 43 41 41 40 38 34 33 33 33 34 32 32 33 35 34 39 42 46 49 52 58 62 66 70 76 82 85 87 92 96 95 98 98 95 95 97 99 95 93 88 85 86
34 39 44 46 46 44 43 42 39 37 36 36 36 37 37 37 38 39 42 42 42 44 47 51 57 64 70 77 83 88 90 92 95 94 98 99 102 110 106 103 103 101 97 92 88
32 35 35 36 42 46 47 45 44 40 39 39 40 39 40 40 42 43 44 45 44 45 48 52 56 64 71 74 76 80 81 83 85 84 84 86 93 103 108 109 108 109 107 102 95
34 33 32 35 36 37 42 46 48 47 42 41 43 42 43 44 43 44 45 48 49 49 53 57 62 64 66 66 67 71 71 72 77 79 77 77 83 92 99 103 110 113 112 108 103
37 38 34 34 33 34 34 39 43 46 45 43 43 44 44 45 46 47 47 49 51 52 59 60 63 62 58 52 49 49 50 57 65 68 66 72 74 82 88 92 102 109 111 111 111
38 38 38 33 33 34 33 33 36 42 45 46 45 45 45 46 46 48 47 50 52 55 62 67 63 59 46 44 39 36 38 40 50 54 57 61 67 73 81 83 89 99 107 110 113
44 39 38 40 38 35 33 34 34 35 38 42 45 46 46 45 48 47 48 49 50 57 64 68 63 57 46 45 40 35 32 31 33 38 46 44 53 64 75 75 80 87 95 105 114
48 42 41 41 39 37 37 34 37 36 35 36 40 42 45 45 44 45 46 49 51 58 65 64 61 57 51 46 42 37 31 28 27 28 32 33 42 55 60 69 73 80 84 93 104
41 46 46 45 39 39 40 37 32 38 36 34 35 39 42 43 43 41 41 42 50 61 67 66 61 59 54 48 43 38 32 27 26 23 25 27 34 42 49 59 66 72 78 83 89
39 37 42 44 44 39 39 41 39 34 39 38 35 34 37 38 39 39 39 41 46 56 64 66 63 62 55 49 44 39 32 31 26 21 21 23 27 32 36 45 53 61 68 76 79
47 39 37 41 40 39 39 42 41 41 36 39 37 33 34 36 35 35 35 40 44 51 57 61 62 63 59 49 44 42 34 30 26 18 17 17 20 23 29 36 42 47 55 65 71
51 48 35 37 40 44 43 45 41 43 40 37 39 35 33 34 32 35 38 38 43 48 55 59 59 60 58 52 45 39 36 31 27 21 17 14 16 19 23 27 33 38 46 55 62
50 51 48 31 38 41 46 46 44 42 42 37 36 36 34 34 30 31 35 37 40 43 51 56 58 58 56 50 43 40 36 32 29 24 19 16 13 13 18 21 26 30 38 46 52
50 52 50 47 36 43 46 48 45 45 43 40 34 35 32 36 33 28 31 37 40 43 46 53 55 54 52 47 44 41 37 34 29 25 21 15 13 13 14 17 22 25 29 38 44
49 50 50 50 48 46 48 48 47 47 48 44 35 33 36 31 37 28 29 33 37 42 42 49 54 54 51 47 45 42 40 36 31 26 20 16 13 13 13 14 17 20 25 33 38
50 51 53 55 55 54 54 50 48 49 48 44 40 31 32 31 34 29 28 30 36 38 37 41 43 46 45 43 41 40 37 36 34 28 22 18 14 11 9 8 12 14 21 26 33
46 50 54 53 55 55 52 49 51 50 50 47 47 32 31 32 31 33 23 30 33 36 35 37 40 44 45 41 38 38 39 36 33 29 24 19 16 12 6 3 6 11 16 20 26
41 45 51 56 58 55 55 55 56 51 51 48 49 37 33 30 30 32 28 24 30 33 33 33 37 38 40 38 35 36 38 38 35 31 26 21 18 15 10 5 2 6 11 17 23
40 43 52 53 57 59 58 63 62 59 49 49 52 46 36 29 27 31 32 23 28 31 31 28 30 33 35 37 35 34 38 38 37 34 31 27 23 18 14 10 9 9 11 13 19
50 48 50 56 59 57 56 51 50 48 49 47 50 50 41 35 27 30 32 29 25 29 29 27 25 29 29 32 33 33 35 38 38 38 39 37 32 25 21 16 15 14 16 17 21
Wind_Direction
291 293 295 295 299 304 305 302 303 304 303 299 295 285 281 275 267 262 265 262 259 257 257 259 259 260 260 260 261 260 259 257 254 251 249 249 249 252 254 256 254 246 251 245 249
291 295 297 295 294 294 293 293 291 294 298 296 287 278 273 270 268 267 265 264 264 264 262 262 260 258 259 259 258 259 260 260 257 253 252 249 251 250 253 254 255 251 243 250 245
287 292 295 298 297 294 297 301 288 284 282 290 288 276 269 266 265 265 266 266 265 263 262 261 260 260 260 257 257 257 256 256 256 255 253 251 249 250 248 252 253 251 246 245 248
285 287 290 292 294 295 294 295 292 292 289 286 284 279 267 265 263 264 266 265 263 261 259 257 257 257 258 259 259 258 259 257 256 257 255 251 251 250 247 248 251 250 249 243 241
281 283 284 288 293 295 296 296 299 299 298 297 289 285 281 271 266 266 265 265 264 263 261 259 259 259 259 260 258 258 261 261 255 252 252 252 250 248 249 248 245 246 243 240 236
277 279 281 283 284 288 294 299 299 301 303 301 301 293 290 289 282 278 273 271 268 266 265 265 266 265 266 262 262 263 263 264 263 257 250 245 245 248 248 248 248 244 241 240 237
273 276 278 279 281 284 287 290 295 297 299 302 302 298 293 293 292 291 289 285 279 276 274 272 272 272 270 268 267 266 265 264 262 261 260 255 241 242 243 245 245 243 240 239 239
274 273 275 277 278 279 280 283 286 290 294 295 297 299 299 299 298 301 303 298 290 286 282 279 279 278 275 272 270 269 267 266 264 260 258 258 254 249 238 241 243 244 241 238 239
290 283 276 274 275 277 279 280 280 283 286 290 292 295 297 297 300 300 306 309 304 297 293 291 288 286 282 278 277 274 272 268 265 260 257 254 250 249 246 241 238 241 242 239 237
304 293 289 285 279 274 275 276 278 278 282 284 287 290 294 297 299 304 306 311 310 303 301 297 295 294 289 286 283 279 274 271 267 263 258 253 248 246 244 242 239 238 239 237 235
313 306 303 290 288 284 278 276 274 275 276 279 283 285 290 294 298 301 304 310 314 311 311 310 308 303 299 293 282 276 273 268 266 263 259 256 251 247 243 241 238 237 237 234 233
309 311 309 306 301 292 291 280 275 275 274 276 280 284 289 293 298 301 307 313 316 315 316 318 317 313 304 295 285 276 272 266 261 261 257 252 246 245 245 239 238 236 235 233 231
304 307 309 313 305 304 299 296 290 281 277 275 279 283 289 292 296 301 306 312 318 319 322 324 324 320 316 310 305 293 280 271 265 261 256 251 245 240 242 240 236 236 234 232 231
294 303 302 309 311 312 306 302 303 294 287 280 280 284 288 293 297 302 308 313 319 323 325 328 330 330 331 329 325 316 300 290 280 268 259 248 241 241 239 237 236 235 234 232 230
289 294 293 303 308 309 311 311 308 306 296 292 286 285 288 291 296 301 307 316 324 326 327 332 337 340 339 340 336 331 319 312 297 279 267 252 239 239 236 236 234 233 232 231 230
277 285 287 293 298 303 309 311 309 310 306 299 296 288 287 291 296 303 310 319 330 329 331 337 342 346 343 344 344 342 334 322 311 293 274 260 247 244 237 235 234 231 230 230 228
264 276 283 286 295 297 302 304 311 312 309 306 301 297 292 296 303 307 315 325 332 331 335 340 344 350 348 345 350 350 343 333 330 316 297 269 253 247 241 239 238 234 230 229 227
256 261 278 280 288 292 297 300 308 309 311 309 308 299 294 295 300 307 319 326 332 336 338 342 346 351 352 350 351 351 352 344 339 324 303 280 265 254 246 240 237 231 231 231 228
253 258 260 280 280 288 289 296 302 305 310 310 309 305 298 295 303 313 319 326 332 336 338 344 349 352 351 353 353 352 352 356 348 344 318 295 275 262 253 245 241 234 230 228 227
246 253 259 258 269 280 282 290 299 301 305 305 308 305 300 295 294 306 315 321 330 338 343 347 350 354 353 354 357 357 353 354 354 349 336 310 283 264 255 247 241 233 229 226 223
247 252 257 252 255 263 276 290 290 294 300 302 301 305 299 293 293 301 315 320 329 337 346 350 351 355 355 359 2 3 2 357 354 351 347 330 307 272 254 244 240 234 227 228 221
246 251 258 254 268 263 276 284 290 291 295 295 296 297 295 288 289 294 310 318 325 332 347 353 352 355 355 360 7 7 5 4 3 356 348 346 329 308 277 253 240 229 227 222 220
252 248 253 256 265 264 272 278 283 285 288 289 290 289 298 288 285 290 307 313 321 328 345 354 356 356 357 359 7 10 13 10 10 4 357 352 351 338 320 284 248 230 217 219 214
256 251 251 255 259 263 267 273 280 281 284 285 286 287 289 288 279 283 293 306 315 323 338 352 358 359 359 1 9 17 22 21 18 13 11 8 7 4 360 306 237 222 212 208 205
258 250 247 252 254 259 263 269 276 277 279 281 279 281 278 281 277 280 282 298 306 316 329 348 357 2 5 4 12 23 28 28 27 25 24 25 22 25 29 48 115 184 192 195 196
262 250 250 252 258 261 263 267 273 275 271 272 271 277 276 271 271 268 277 285 296 307 318 337 351 1 8 12 15 30 37 36 37 38 36 37 39 38 47 61 91 130 155 171 179
263 255 252 251 256 261 263 263 268 270 268 265 268 273 269 266 263 257 263 269 278 292 305 320 343 357 8 17 20 27 42 45 45 46 48 48 48 51 58 73 91 112 130 149 159